Regional Weather Roundup
Issued by NWS

Home | Current Version | Previous Version | Graphics & Text | Print | Product List | Glossary On
Versions: 1 2 3 4 5 6 7 8 9 10 11 12 13 14 15 16 17 18 19 20 21 22 23 24 25 26 27 28 29 30 31 32 33 34 35 36 37 38 39 40 41 42 43 44 45 46 47 48 49 50
000
ASUS43 KIND 260059
RWRIN

WEATHER ROUNDUP FOR INDIANA
NATIONAL WEATHER SERVICE INDIANAPOLIS IN
900 PM EDT WED APR 25 2018

NOTE: "FAIR" INDICATES FEW OR NO CLOUDS BELOW 12,000 FEET WITH NO
SIGNIFICANT WEATHER AND/OR OBSTRUCTIONS TO VISIBILITY.

* - STATION DOES NOT REPORT WEATHER SUCH AS PRECIPITATION OR FOG.

+ - STATION NOT QUALITY CONTROLLED BY THE NATIONAL WEATHER SERVICE.
    USE DATA WITH CAUTION...ESPECIALLY DEWPOINT AND RELATIVE
    HUMIDITY OBSERVATIONS.

INZ001>003-010>013-019-020-260200-
NORTHWEST INDIANA

CITY           SKY/WX    TMP DP  RH WIND       PRES   REMARKS
GARY /AIRPORT/ PTCLDY    39  34  81 N8        30.06S WCI  34
KNOX *+        FAIR      43  30  61 N10       30.02R
MONTICELLO +   FAIR      48  30  49 N12       30.00S

$$

LMZ046-743>745-260200-
SOUTHERN LAKE MICHIGAN

STATION/POSITION TIME  TEMP    WIND        PRES    WAVE
                       AIR SEA DIR/SP/G            HT
                 (UTC) (F)     (DEG/KT/KT) (MB)    (FT)
BURNS HARBOR     0040   39     350/  5/  7 1017.9S
MICHIGAN CITY    0030   39     340/ 10/ 11   N/A

$$

INZ004-005-014>016-021>024-260200-
NORTH CENTRAL INDIANA

CITY           SKY/WX    TMP DP  RH WIND       PRES   REMARKS
ELKHART        FAIR      45  28  53 NW6       30.00R
GOSHEN         FAIR      46  27  47 NW10      29.98R
ROCHESTER +    FAIR      48  30  49 NW9       30.00S
SOUTH BEND     FAIR      42  28  57 N13       30.01S
WARSAW +       FAIR      45  28  53 NW8       29.99S

$$

INZ006>009-017-018-025>027-260200-
NORTHEAST INDIANA

CITY           SKY/WX    TMP DP  RH WIND       PRES   REMARKS
ANGOLA *+      FAIR      48  32  53 NW10      29.95R
FORT WAYNE     FAIR      50  31  48 NW10      29.96R
KENDALLVILLE + FAIR      48  26  42 NW6       29.96S

$$

INZ028-029-035-036-043>045-051>053-260200-
WEST CENTRAL INDIANA

CITY           SKY/WX    TMP DP  RH WIND       PRES   REMARKS
GREENCASTLE +  FAIR      54  32  43 N9        29.98S
LAFAYETTE      FAIR      48  30  49 N7        30.00S
TERRE HAUTE    FAIR      58  37  45 N12       29.97R

$$

INZ030>032-037>040-046>048-054>057-064-065-260200-
CENTRAL INDIANA

CITY           SKY/WX    TMP DP  RH WIND       PRES   REMARKS
COLUMBUS       CLEAR     57  45  62 NW5       29.94S
GREENWOOD *+   FAIR      55  33  42 N9        29.97R
INDIANAPOLIS   MOCLDY    55  31  39 N15       29.97R
-EAGLE CREEK   FAIR      54  32  43 N8        29.97R
KOKOMO +       FAIR      48  30  49 N9        29.99R
MT COMFORT *+  FAIR      52  39  62 N9        29.97R
SHELBYVILLE    FAIR      56  38  50 N12       29.94R
ZIONSVILLE +   FAIR      49  33  53 N10       29.98R

$$

INZ033-034-041-042-049-050-058-059-260200-
EAST CENTRAL INDIANA

CITY           SKY/WX    TMP DP  RH WIND       PRES   REMARKS
MUNCIE         FAIR      51  36  56 NW13      29.95R
RICHMOND +     FAIR      54  36  50 NW6       29.93S

$$

INZ060-061-067>069-081>083-085>088-260200-
SOUTHWEST INDIANA

CITY           SKY/WX    TMP DP  RH WIND       PRES   REMARKS
EVANSVILLE     FAIR      63  50  62 N5        29.94S
HUNTINGBURG +  FAIR      61  49  64 N6        29.94S

$$

INZ062-063-066-070>080-084-089>092-260200-
SOUTH CENTRAL AND SOUTHEAST INDIANA

CITY           SKY/WX    TMP DP  RH WIND       PRES   REMARKS
BLOOMINGTON    FAIR      57  45  64 N7        29.95R
SEYMOUR +      FAIR      59  46  63 CALM      29.94S

$$




USA.gov is the U.S. government's official web portal to all federal, state and local government web resources and services.